Location: Worth Mountain WMA
(34.9569°N, 81.4819°W)
Time: 07:03:37
(UTC-04:00)

Amateur Radio Satellites - All Passes

Search period start: 26 May 2017 06:33
Search period end: 27 May 2017 06:33
Location: Worth Mountain WMA, 34.9569°N, 81.4819°W

Satellite Date Start Highest point End Downlink Frequencies (MHz)
Time Altitude Azimuth
KKS-1 26 May 06:40:05 06:42:12 13° 267° (W) 06:44:19 437.445
XW-2D 26 May 06:44:33 06:47:17 18° 95° (E) 06:50:00 145.860 - 145.880
XW-2B 26 May 06:52:12 06:55:16 22° 96° (E) 06:58:17 145.730 - 145.750
DOVE 4 26 May 06:54:19 06:58:22 49° 99° (E) 07:02:33 437.250
RS-15 26 May 07:00:44 07:07:30 16° 343° (NNW) 07:14:16 29.354- 29.394
PCSat 26 May 07:01:02 07:04:38 18° 255° (WSW) 07:08:14 145.827
XW-2F 26 May 07:04:56 07:08:23 31° 97° (E) 07:11:48 145.980 - 146.000
XW-2C 26 May 07:05:26 07:08:58 33° 98° (E) 07:12:27 145.795 - 145.815
NUDT-PHONESAT 26 May 07:06:06 07:09:16 25° 96° (E) 07:12:25 437.300
AO-7 26 May 07:07:09 07:12:34 19° 305° (NW) 07:18:00 .
JUGNU 26 May 07:07:30 07:11:12 17° 187° (S) 07:14:53 437.505
BEESAT 2 26 May 07:08:16 07:12:08 53° 301° (WNW) 07:16:04 435.950
STARS 26 May 07:12:42 07:14:49 13° 267° (W) 07:16:57 437.465
KAITUO 1B 26 May 07:13:33 07:16:59 32° 98° (E) 07:20:23 145.475/437.950
SO-50 26 May 07:16:57 07:19:46 16° 48° (NE) 07:22:35 436.795
HO-68 26 May 07:29:34 07:33:40 16° 92° (E) 07:37:45 435.675
STRAND 1 26 May 07:31:26 07:36:05 37° 71° (ENE) 07:40:46 437.568
BEESAT 3 26 May 07:32:35 07:34:12 12° 312° (NW) 07:35:50 437.485
LilacSat-2 26 May 07:42:38 07:46:30 68° 284° (WNW) 07:50:19 437.200
SRMSAT 26 May 07:45:43 07:49:34 18° 175° (S) 07:53:24 437.500
CUTE-I 26 May 07:58:11 08:03:32 78° 285° (WNW) 08:08:52 437.470
M-CUBED/EXP-1 PRIME 26 May 07:58:56 08:01:41 17° 65° (ENE) 08:04:19 437.505
CUBEBUG 2 26 May 08:03:16 08:04:13 11° 91° (E) 08:05:10 437.445
XW-2D 26 May 08:18:16 08:21:24 24° 288° (WNW) 08:24:30 145.860 - 145.880
SEEDS 26 May 08:19:45 08:22:56 21° 95° (E) 08:26:06 437.485
XW-2B 26 May 08:26:26 08:29:18 20° 289° (WNW) 08:32:08 145.730 - 145.750
DOVE 4 26 May 08:34:20 08:35:39 11° 293° (WNW) 08:36:59 437.250
XW-2F 26 May 08:40:04 08:42:12 15° 291° (WNW) 08:44:20 145.980 - 146.000
NUDT-PHONESAT 26 May 08:40:27 08:42:56 17° 290° (WNW) 08:45:26 437.300
XW-2C 26 May 08:40:50 08:42:49 14° 292° (WNW) 08:44:47 145.795 - 145.815
KAITUO 1B 26 May 08:48:42 08:50:40 14° 292° (WNW) 08:52:37 145.475/437.950
SO-50 26 May 08:56:07 09:00:30 52° 244° (WSW) 09:04:54 436.795
NO-84 26 May 08:58:10 09:02:31 63° 129° (SE) 09:06:47 435.350 FM
CUTE 1.7 + AOD 2 26 May 09:04:14 09:08:27 65° 284° (WNW) 09:12:38 437.475
STRAND 1 26 May 09:11:32 09:15:20 21° 265° (W) 09:19:09 437.568
AO-73 26 May 09:13:30 09:16:53 20° 95° (E) 09:20:17 145.935
HO-68 26 May 09:14:46 09:21:59 78° 287° (WNW) 09:29:09 435.675
XW-2A 26 May 09:17:52 09:21:06 38° 285° (WNW) 09:24:18 145.665 - 145.685
RS-15 26 May 09:19:59 09:27:32 18° 22° (NNE) 09:34:54 29.354- 29.394
AAUSAT CUBESAT 2 26 May 09:20:18 09:24:20 51° 99° (E) 09:28:20 437.432
ZACube-1 26 May 09:26:36 09:30:42 32° 97° (E) 09:34:47 437.345
PRISM 26 May 09:27:06 09:29:07 13° 67° (ENE) 09:31:08 437.425
M-CUBED/EXP-1 PRIME 26 May 09:31:52 09:35:51 35° 256° (WSW) 09:39:38 437.505
SRMSAT 26 May 09:34:14 09:38:01 17° 186° (S) 09:41:48 437.500
CUBEBUG 2 26 May 09:36:33 09:41:06 62° 285° (WNW) 09:45:45 437.445
UWE-3 26 May 09:47:54 09:52:31 79° 283° (WNW) 09:57:10 435.000/436.395/437.385
FO-29 26 May 09:51:19 09:55:23 24° 67° (ENE) 09:59:29 435.910
SEEDS 26 May 09:55:03 09:58:32 26° 289° (WNW) 10:02:00 437.485
TIGRISAT 26 May 10:13:14 10:17:01 32° 72° (ENE) 10:20:51 435.000
Oscar 11 26 May 10:22:40 10:27:03 80° 281° (WNW) 10:31:21 .
NO-84 26 May 10:37:15 10:40:25 19° 325° (NW) 10:43:32 435.350 FM
UNISAT 6 26 May 10:44:17 10:48:31 85° 80° (E) 10:52:52 437.425
AO-73 26 May 10:49:04 10:53:06 32° 288° (WNW) 10:57:08 145.935
AAUSAT CUBESAT 2 26 May 10:58:12 10:59:17 11° 294° (WNW) 11:00:22 437.432
PRISM 26 May 11:00:04 11:04:00 41° 261° (W) 11:07:55 437.425
ZACube-1 26 May 11:03:20 11:06:43 21° 291° (WNW) 11:10:07 437.345
HO-68 26 May 11:05:37 11:08:32 13° 304° (NW) 11:11:26 435.675
AIST 2D 26 May 11:09:59 11:11:56 14° 69° (ENE) 11:13:54 435.315
DELFI C3 26 May 11:18:17 11:22:11 63° 284° (WNW) 11:26:01 145.870
EO-79 26 May 11:20:58 11:22:27 12° 66° (ENE) 11:23:56 145.935-145.965
SRMSAT 26 May 11:25:04 11:26:25 11° 195° (SSW) 11:27:47 437.500
EO-88 26 May 11:27:46 11:31:25 65° 283° (WNW) 11:35:03 145.990 - 145.960
RS-15 26 May 11:32:14 11:44:02 51° 52° (NE) 11:55:12 29.354- 29.394
FO-29 26 May 11:35:42 11:40:19 32° 263° (W) 11:44:58 435.910
YUBILEINY 26 May 11:50:06 11:56:19 21° 69° (ENE) 12:02:31 435.215
TIGRISAT 26 May 11:50:57 11:53:45 17° 266° (W) 11:56:36 435.000
NANOSAT C BR1 26 May 12:03:53 12:07:39 34° 72° (ENE) 12:11:26 145.865
POLYITAN 1 26 May 12:07:51 12:11:48 43° 74° (ENE) 12:15:46 437.675
ESTCUBE 1 26 May 12:10:31 12:14:13 25° 96° (E) 12:17:53 437.505/2401.250
LO-87 26 May 12:12:17 12:15:44 47° 100° (E) 12:19:10 145.935 - 145.965
DUCHIFAT 1 26 May 12:14:38 12:18:32 41° 73° (ENE) 12:22:27 145.980
QB50P2 26 May 12:16:18 12:20:26 61° 75° (ENE) 12:24:35 145.880/145.840
BUGSAT 1 26 May 12:35:21 12:38:15 20° 69° (ENE) 12:41:10 437.445
AIST 2D 26 May 12:41:56 12:44:53 25° 263° (W) 12:47:52 435.315
EO-79 26 May 12:53:41 12:57:44 49° 260° (W) 13:01:48 145.935-145.965
Oscar 19 26 May 13:04:26 13:08:00 19° 66° (ENE) 13:11:34 437.125/150
SPROUT 26 May 13:04:39 13:08:08 24° 96° (E) 13:11:35 437.525
VELOX 1 26 May 13:07:49 13:11:29 25° 97° (E) 13:15:06 145.980
50 SAT 26 May 13:29:17 13:31:46 19° 96° (E) 13:34:15 437.505
UKube-1 26 May 13:39:05 13:40:42 12° 93° (E) 13:42:19 .
NANOSAT C BR1 26 May 13:40:56 13:43:26 15° 266° (W) 13:45:56 145.865
O/OREOS (USA 219) 26 May 13:41:14 13:43:30 13° 58° (ENE) 13:45:44 437.305
DX 1 26 May 13:44:37 13:47:59 22° 96° (E) 13:51:20 434.975-435.025
YUBILEINY 26 May 13:45:06 13:53:55 74° 266° (W) 14:02:41 435.215
RS-15 26 May 13:45:13 13:56:14 45° 253° (WSW) 14:06:47 29.354- 29.394
POLYITAN 1 26 May 13:46:01 13:47:46 12° 267° (W) 13:49:31 437.675
ESTCUBE 1 26 May 13:47:13 13:50:54 25° 290° (WNW) 13:54:34 437.505/2401.250
DUCHIFAT 1 26 May 13:52:30 13:54:21 13° 267° (W) 13:56:13 145.980
BUGSAT 1 26 May 14:10:08 14:13:26 25° 263° (W) 14:16:46 437.445
BEESAT 3 26 May 14:13:34 14:15:35 13° 49° (NE) 14:17:34 437.485
Gurwin Techsat 1B 26 May 14:17:16 14:22:27 58° 73° (ENE) 14:27:40 435.225
AO-7 26 May 14:19:13 14:24:08 17° 54° (NE) 14:29:04 .
AO-85 26 May 14:33:27 14:37:32 71° 60° (ENE) 14:41:52 145.980
SPROUT 26 May 14:40:29 14:43:54 24° 290° (WNW) 14:47:19 437.525
Oscar 19 26 May 14:41:57 14:46:55 46° 261° (W) 14:51:55 437.125/150
VELOX 1 26 May 14:44:19 14:47:47 23° 291° (WNW) 14:51:15 145.980
50 SAT 26 May 15:02:10 15:04:29 17° 290° (WNW) 15:06:47 437.505
UKube-1 26 May 15:12:48 15:16:56 47° 287° (WNW) 15:21:02 .
O/OREOS (USA 219) 26 May 15:18:49 15:23:11 51° 254° (WSW) 15:27:30 437.305
DX 1 26 May 15:20:28 15:24:05 26° 290° (WNW) 15:27:41 434.975-435.025
BEESAT 2 26 May 15:29:04 15:32:39 30° 55° (NE) 15:36:13 435.950
NO-84 26 May 15:37:13 15:38:34 12° 28° (NNE) 15:39:52 435.350 FM
ITAMSAT 1 26 May 15:42:57 15:47:56 52° 72° (ENE) 15:52:57 435.822/435.867
ITUPSAT 1 26 May 15:43:41 15:47:41 26° 96° (E) 15:51:41 437.325
YUBILEINY 26 May 15:47:20 15:49:04 11° 284° (WNW) 15:50:48 435.215
BEESAT 3 26 May 15:49:34 15:53:26 50° 245° (WSW) 15:57:15 437.485
Gurwin Techsat 1B 26 May 15:59:57 16:02:43 14° 268° (W) 16:05:30 435.225
MOZHAYETS 4 26 May 16:01:27 16:05:05 22° 95° (E) 16:08:41
AO-7 26 May 16:07:26 16:15:43 87° 72° (ENE) 16:24:04 .
BEESAT 26 May 16:16:46 16:21:32 62° 102° (ESE) 16:26:15 436.000
CUBESAT XI-V 26 May 16:48:50 16:50:18 11° 91° (E) 16:51:46 437.345
KKS-1 26 May 16:57:51 16:59:02 11° 92° (E) 17:00:13 437.445
BEESAT 2 26 May 17:07:17 17:10:11 19° 250° (WSW) 17:13:04 435.950
NO-84 26 May 17:13:07 17:16:44 87° 48° (NE) 17:20:00 435.350 FM
ITUPSAT 1 26 May 17:21:20 17:25:24 28° 291° (WNW) 17:29:28 437.325
ITAMSAT 1 26 May 17:24:38 17:27:38 15° 267° (W) 17:30:39 435.822/435.867
MOZHAYETS 4 26 May 17:38:10 17:42:11 30° 289° (WNW) 17:46:11
CUTE-I 26 May 17:39:56 17:42:32 14° 63° (ENE) 17:45:10 437.470
XW-2C 26 May 17:45:49 17:46:50 11° 67° (ENE) 17:47:51 145.795 - 145.815
KAITUO 1B 26 May 17:53:30 17:53:36 10° 67° (ENE) 17:53:42 145.475/437.950
DOVE 4 26 May 17:56:26 18:00:41 35° 73° (ENE) 18:04:43 437.250
BEESAT 26 May 17:56:46 17:58:43 12° 296° (WNW) 18:00:40 436.000
AO-7 26 May 18:04:42 18:09:17 16° 267° (W) 18:13:54 .
LilacSat-2 26 May 18:21:09 18:24:35 33° 73° (ENE) 18:28:05 437.200
CUBESAT XI-V 26 May 18:23:26 18:27:59 56° 285° (WNW) 18:32:29 437.345
KKS-1 26 May 18:31:31 18:35:51 54° 286° (WNW) 18:40:10 437.445
XW-2D 26 May 18:55:08 18:58:55 84° 254° (WSW) 19:02:47 145.860 - 145.880
STARS 26 May 19:02:34 19:06:53 59° 286° (WNW) 19:11:11 437.465
XW-2B 26 May 19:03:07 19:06:53 68° 259° (W) 19:10:42 145.730 - 145.750
SEEDS 26 May 19:10:53 19:11:18 10° 65° (ENE) 19:11:44 437.485
NUDT-PHONESAT 26 May 19:14:58 19:18:38 61° 260° (W) 19:22:20 437.300
XW-2F 26 May 19:15:54 19:19:32 46° 261° (W) 19:23:14 145.980 - 146.000
CUTE-I 26 May 19:16:43 19:21:58 66° 258° (WSW) 19:27:15 437.470
XW-2C 26 May 19:16:58 19:20:34 42° 261° (W) 19:24:14 145.795 - 145.815
KAITUO 1B 26 May 19:23:32 19:27:08 45° 261° (W) 19:30:47 145.475/437.950
DOVE 4 26 May 19:35:14 19:38:23 18° 265° (W) 19:41:27 437.250
HO-68 26 May 19:39:17 19:46:15 57° 70° (ENE) 19:53:14 435.675
XW-2A 26 May 19:45:46 19:48:47 33° 74° (ENE) 19:51:51 145.665 - 145.685
STRAND 1 26 May 19:46:11 19:49:27 17° 94° (E) 19:52:42 437.568
Tancredo 1 26 May 19:46:58 19:49:31 24° 130° (SE) 19:52:04 437.200
CUTE 1.7 + AOD 2 26 May 19:53:03 19:57:13 54° 75° (ENE) 20:01:25 437.475
PCSat 26 May 19:54:19 19:59:44 89° 293° (WNW) 20:05:12 145.827
LilacSat-2 26 May 19:57:05 19:58:57 13° 267° (W) 20:00:50 437.200
AAUSAT CUBESAT 2 26 May 20:07:30 20:10:44 22° 70° (ENE) 20:13:58 437.432
ISS 26 May 20:17:59 20:20:59 34° 132° (SE) 20:24:01 437.550
ZACube-1 26 May 20:20:19 20:22:53 16° 67° (ENE) 20:25:30 437.345
CUBEBUG 2 26 May 20:31:16 20:35:23 70° 76° (ENE) 20:39:34 437.445
UWE-3 26 May 20:41:33 20:45:35 52° 75° (ENE) 20:49:44 435.000/436.395/437.385
SEEDS 26 May 20:42:15 20:46:25 59° 260° (W) 20:50:38 437.485
Oscar 11 26 May 21:13:47 21:17:57 49° 74° (ENE) 21:22:10 .
M-CUBED/EXP-1 PRIME 26 May 21:14:44 21:16:27 13° 100° (E) 21:18:09 437.505
Tancredo 1 26 May 21:22:39 21:25:13 24° 325° (NW) 21:27:47 437.200
STRAND 1 26 May 21:23:53 21:28:49 48° 287° (WNW) 21:33:44 437.568
HO-68 26 May 21:28:46 21:34:15 23° 265° (W) 21:39:47 435.675
CUTE 1.7 + AOD 2 26 May 21:33:07 21:33:19 10° 269° (W) 21:33:32 437.475
AO-73 26 May 21:40:34 21:44:41 60° 260° (W) 21:48:55 145.935
PCSat 26 May 21:41:38 21:43:53 12° 313° (NW) 21:46:08 145.827
AAUSAT CUBESAT 2 26 May 21:42:35 21:46:02 24° 264° (W) 21:49:28 437.432
ISS 26 May 21:54:56 21:57:33 21° 327° (NNW) 22:00:09 437.550
ZACube-1 26 May 21:54:59 21:58:50 35° 263° (W) 22:02:46 437.345
DELFI C3 26 May 22:00:02 22:03:48 42° 74° (ENE) 22:07:35 145.870
EO-88 26 May 22:02:21 22:05:32 29° 73° (ENE) 22:08:43 145.990 - 145.960
UNISAT 6 26 May 22:39:24 22:43:08 24° 96° (E) 22:46:54 437.425
PRISM 26 May 22:44:38 22:48:14 30° 98° (E) 22:51:49 437.425
FO-29 26 May 22:45:30 22:51:37 37° 99° (E) 22:58:18 435.910
LO-87 26 May 22:47:06 22:48:27 12° 68° (ENE) 22:49:49 145.935 - 145.965
M-CUBED/EXP-1 PRIME 26 May 22:48:19 22:50:55 22° 293° (WNW) 22:53:29 437.505
Oscar 11 26 May 22:52:50 22:54:19 12° 268° (W) 22:55:49 .
SO-50 26 May 23:06:42 23:11:18 75° 301° (WNW) 23:15:51 436.795
ESTCUBE 1 26 May 23:07:36 23:10:26 16° 67° (ENE) 23:13:14 437.505/2401.250
EO-88 26 May 23:37:21 23:39:14 14° 266° (W) 23:41:08 145.990 - 145.960
DELFI C3 26 May 23:37:25 23:38:44 11° 268° (W) 23:40:03 145.870
TIGRISAT 26 May 23:43:28 23:48:05 70° 284° (WNW) 23:52:43 435.000
SPROUT 26 May 23:56:23 23:58:10 13° 66° (ENE) 23:59:59 437.525
VELOX 1 27 May 00:02:43 00:05:24 16° 67° (ENE) 00:08:06 145.980
QB50P2 27 May 00:06:06 00:08:03 13° 93° (E) 00:10:01 145.880/145.840
AIST 2D 27 May 00:09:54 00:12:56 26° 97° (E) 00:15:57 435.315
UNISAT 6 27 May 00:15:48 00:19:45 28° 289° (WNW) 00:23:44 437.425
LO-87 27 May 00:18:21 00:21:33 32° 262° (W) 00:24:46 145.935 - 145.965
PRISM 27 May 00:20:37 00:23:15 17° 292° (WNW) 00:25:52 437.425
FO-29 27 May 00:30:37 00:36:30 36° 290° (WNW) 00:43:00 435.910
DX 1 27 May 00:38:10 00:40:18 13° 66° (ENE) 00:42:25 434.975-435.025
EO-79 27 May 00:41:32 00:45:22 32° 98° (E) 00:49:11 145.935-145.965
ESTCUBE 1 27 May 00:42:34 00:46:50 41° 261° (W) 00:51:08 437.505/2401.250
YUBILEINY 27 May 00:47:15 00:54:01 26° 83° (E) 01:00:48 435.215
NANOSAT C BR1 27 May 01:26:17 01:30:33 78° 283° (WNW) 01:34:47 145.865
SPROUT 27 May 01:29:34 01:33:38 46° 260° (W) 01:37:44 437.525
50 SAT 27 May 01:29:51 01:33:18 90° 266° (W) 01:36:46 437.505
POLYITAN 1 27 May 01:31:07 01:35:21 61° 285° (WNW) 01:39:34 437.675
DUCHIFAT 1 27 May 01:36:53 01:41:06 65° 284° (WNW) 01:45:18 145.980
VELOX 1 27 May 01:37:22 01:41:31 39° 261° (W) 01:45:39 145.980
QB50P2 27 May 01:39:58 01:44:00 43° 286° (WNW) 01:48:03 145.880/145.840
AIST 2D 27 May 01:43:52 01:45:53 15° 290° (WNW) 01:47:54 435.315
RS-15 27 May 01:50:36 02:01:33 44° 107° (ESE) 02:12:47 29.354- 29.394
BUGSAT 1 27 May 01:53:56 01:58:01 54° 101° (E) 02:02:06 437.445
UKube-1 27 May 02:03:21 02:07:40 90° 281° (WNW) 02:12:00 .
DX 1 27 May 02:11:52 02:16:03 46° 260° (W) 02:20:14 434.975-435.025
Tancredo 1 27 May 02:16:18 02:16:20 10° 25° (NNE) 02:16:23 437.200
EO-79 27 May 02:17:58 02:20:51 18° 292° (WNW) 02:23:45 145.935-145.965
Gurwin Techsat 1B 27 May 02:37:12 02:41:51 30° 97° (E) 02:46:27 435.225
YUBILEINY 27 May 02:41:36 02:50:07 58° 280° (W) 02:58:45 435.215
ITUPSAT 1 27 May 02:47:35 02:51:11 22° 68° (ENE) 02:54:47 437.325
ISS 27 May 02:49:14 02:51:00 14° 28° (NNE) 02:52:45 437.550
Oscar 19 27 May 02:56:35 03:01:46 82° 103° (ESE) 03:06:53 437.125/150
MOZHAYETS 4 27 May 03:01:01 03:03:40 15° 66° (ENE) 03:06:20
JUGNU 27 May 03:16:49 03:19:27 13° 168° (SSE) 03:22:07 437.505
BEESAT 27 May 03:19:45 03:24:18 48° 73° (ENE) 03:28:54 436.000
BUGSAT 1 27 May 03:31:55 03:32:52 11° 294° (WNW) 03:33:49 437.445
O/OREOS (USA 219) 27 May 03:48:58 03:52:48 27° 102° (ESE) 03:56:39 437.305
Tancredo 1 27 May 03:49:30 03:52:33 75° 41° (NE) 03:55:36 437.200
ITAMSAT 1 27 May 03:59:38 04:03:49 24° 96° (E) 04:07:58 435.822/435.867
RS-15 27 May 04:02:01 04:13:44 54° 307° (NW) 04:25:49 29.354- 29.394
AO-7 27 May 04:13:15 04:20:47 36° 99° (E) 04:28:14 .
Gurwin Techsat 1B 27 May 04:17:09 04:21:39 29° 291° (WNW) 04:26:09 435.225
ITUPSAT 1 27 May 04:24:28 04:28:45 33° 262° (W) 04:33:05 437.325
ISS 27 May 04:24:34 04:27:50 74° 224° (SW) 04:31:05 437.550
MOZHAYETS 4 27 May 04:36:00 04:40:24 45° 261° (W) 04:44:50
Oscar 19 27 May 04:39:22 04:40:18 10° 298° (WNW) 04:41:15 437.125/150
AO-85 27 May 04:44:49 04:48:58 50° 116° (ESE) 04:52:54 145.980
PCSat 27 May 04:45:45 04:50:45 36° 57° (ENE) 04:55:43 145.827
BEESAT 27 May 04:59:45 05:02:17 14° 267° (W) 05:04:50 436.000
JUGNU 27 May 05:03:48 05:07:43 18° 178° (S) 05:11:40 437.505
BEESAT 2 27 May 05:19:48 05:20:47 11° 107° (ESE) 05:21:45 435.950
CUBESAT XI-V 27 May 05:22:45 05:27:27 87° 256° (WSW) 05:32:12 437.345
KKS-1 27 May 05:25:47 05:30:12 89° 89° (E) 05:34:39 437.445
O/OREOS (USA 219) 27 May 05:28:21 05:32:07 25° 297° (WNW) 05:35:53 437.305
BEESAT 3 27 May 05:35:42 05:39:33 56° 116° (ESE) 05:43:28 437.485
ITAMSAT 1 27 May 05:38:35 05:43:16 35° 290° (WNW) 05:47:58 435.822/435.867
SRMSAT 27 May 05:45:45 05:48:08 12° 167° (SSE) 05:50:31 437.500
STARS 27 May 05:55:25 05:59:46 79° 76° (ENE) 06:04:07 437.465
DOVE 4 27 May 06:00:44 06:01:27 10° 93° (E) 06:02:11 437.250
AO-7 27 May 06:05:43 06:13:32 46° 295° (WNW) 06:21:21 .
AO-85 27 May 06:27:32 06:29:34 13° 311° (NW) 06:31:34 145.980
